THOR ABLESTAR DEB, 158

Orbit data source: Space-Track

THOR ABLESTAR DEB, 158 is space debris in LEO originally from a launch on Thu, 29 Jun 1961 UTC launched from the Air Force Eastern Test Range (AFETR). Debris objects in space refer to the collection of defunct objects orbiting the Earth. Examples of debris include non-operational satellites, rocket bodies, and fragments generated from explosions, collisions, or faulty payload assembly.

Loading next visibility...
Identifier
158, 1961-015AU
Orbit
LEO
Last TLE update
10 hours ago
Origin
Manufacturer
Unknown
Mission
Spacecraft
Bus & Motor
Unknown
Mass
Unknown
Launch date (UTC)
1961-06-29 (64 years ago)
Launch vehicle
Unknown
Launch site
Air Force Eastern Test Range (AFETR)
Object type
Payload
Rocket body
Debris
Shape & HBR
Unknown
Radar Cross Section
Medium (>0.1 m² and <1 m²)

Expand to show TLE details & history

TLE from 10 hours ago
0 THOR ABLESTAR DEB
1 00158U 61015AU  25188.91704772  .00000054  00000-0  27590-3 0  9993
2 00158  67.0734 165.4252 0601449  93.1430 273.8539 12.66032880961764
Epoch: 2025-07-07T22:00Z
TLE epoch observation values (Epoch: 2025-07-07T22:00:32.923Z)
Latitude
0.00001°
Longitude
-90.83149°
Altitude
1,396.792 km
Speed
7.163 km/s
True Right ascension
11h 01m 42s
True Declination
0° 00' 00"
Sunlit
Object was in daylight at epoch
Visualization orbit readout
Latitude
62.80562°
Longitude
-36.66201°
Altitude
961.041 km
Speed
7.587 km/s
Apparent Right ascension
10h 27m 23s
Apparent Declination
24° 10' 51"
Sunlit
Object is in daylight
Visualization observer readout
Local Sidereal Time
19:57:00
Azimuth
324.42° NNW
Elevation
-16.951°
Doppler factor
1
Orbital elements
Apogee altitude
1,864.207 km
Perigee altitude
928.986 km
Semi-major axis
7,774.733 km
Eccentricity
0.06014
Inclination
67.0734°
RAAN
165.4252°
Arg. of periapsis
93.143°
True anomaly
Unknown
Mean anomaly
273.8539°
Eccentric anomaly
Unknown
Mean motion
3.16603 °/min
Orbital period
113.71 mins
BSTAR
0.0002759
Loading maneuver chart data...
Loading SW <> Apogee altitude chart data...

THOR ABLESTAR DEB Visibility forecast

Observer location: undefined°, undefined°

Span
Click to sort rows by Start time (UTC) header in descending order
Start Az.
Max El. time (UTC)
Max El. Az.
Max El.
End time (UTC)
End Az.
10 mins2025-07-08 08:01:23.300Z354.986° N2025-07-08 08:06:23.300Z54.378° ENE24.113°2025-07-08 08:11:23.300Z104.338° ESE
11 mins2025-07-08 09:58:23.300Z317.942° NNW2025-07-08 10:03:23.300Z240.279° WSW38.812°2025-07-08 10:09:23.300Z173.631° S
9 mins2025-07-08 22:46:23.300Z155.155° SSE2025-07-08 22:50:23.300Z115.786° SE24.509°2025-07-08 22:55:23.300Z58.229° ENE
11 mins2025-07-09 00:42:23.300Z233.513° WSW2025-07-09 00:47:23.300Z297.742° NW37.543°2025-07-09 00:53:23.300Z18.213° NNE
|